New Bedford Regional Airport New Bedford US
ICAO: KEWB
IATA: EWB
Category: Medium
Scheduled Services: Yes

Elevation: 80 ft
TransAlt. 18000 ft.

Airport Communications:
PROVIDENCE APP/DEP:128.7
ATIS:126.85
CTAF:118.1
GND:121.9
TWR:118.1
UNICOM:122.95

KEWB Zoom In..

If you have problems with the map follow the link
https://www.worldairports.se/pages/airport.php?
ICAO=KEWB

Runways:

(A) RW 05 length 4997 ft width 150 ft
ILS 109.70 / hdg 54

(B) RW 14 length 5000 ft width 150 ft
---- / hdg 144

(C) RW 23 length 4997 ft width 150 ft
---- / hdg 234

(D) RW 32 length 5000 ft width 150 ft
---- / hdg 324

Location; KEWB
Day. 13 / Time. 11.53 Zulu
* Altimeter: 30.53
* Temperature: -05° c. -23°f.
* Wind from: 000° Speed 00 kn.
Dewpoint: -07° c.
Visibility: 10 Statute Miles.
Clouds: Clear (automated report).

KEWB 131153Z 00000KT 10SM CLR M05/M07 A3053 RMK AO2 SLP340 I1000 I6000 T10501067 11044 21072 56026


Wind - Calm.

 
 
jpsmedia worldairports.se 2019   terms of use